Location: Anuling
(14.1239°N, 120.8922°E)
Time: 12:16:27
(UTC+00:00)

Cosmos 2218 Rocket - Pass Details

Date: 16 April 2026
Orbit: 955 x 1005 km, 82.9° (Epoch: 11 May)

Event Time Altitude Azimuth Distance (km) Brightness Sun altitude
Rises 11:36:48 0° 175° (S) 3,646 6.8 -21.2°
Reaches altitude 10° 11:39:21 10° 171° (S) 2,694 6.1 -21.8°
Maximum altitude 11:45:23 60° 92° (E) 1,088 3.9 -23.2°
Drops below altitude 10° 11:51:23 10° 14° (NNE) 2,679 6.3 -24.6°
Sets 11:53:54 0° 11° (N) 3,624 7.1 -25.2°
